Hourly Weather Tanji

Today, 16 April, Friday

Time Temperature Precipitation Wind Pressure Humidity
00:00 +24°C° 0 mm 6 mps 757 mmHg 70%
01:00 +25°C° 0 mm 5 mps 756 mmHg 70%
02:00 +25°C° 0 mm 5 mps 756 mmHg 69%
03:00 +23°C° 0 mm 5 mps 756 mmHg 68%
04:00 +23°C° 0 mm 5 mps 756 mmHg 68%
05:00 +23°C° 0 mm 4 mps 756 mmHg 67%
06:00 +25°C° 0 mm 4 mps 756 mmHg 62%
07:00 +26°C° 0 mm 4 mps 757 mmHg 57%
08:00 +27°C° 0 mm 4 mps 757 mmHg 51%
09:00 +28°C° 0 mm 5 mps 757 mmHg 46%
10:00 +30°C° 0 mm 5 mps 757 mmHg 41%
11:00 +32°C° 0 mm 5 mps 757 mmHg 36%
12:00 +33°C° 0 mm 6 mps 756 mmHg 35%
13:00 +33°C° 0 mm 6 mps 756 mmHg 34%
14:00 +34°C° 0 mm 7 mps 755 mmHg 34%
15:00 +32°C° 0 mm 7 mps 755 mmHg 41%
16:00 +31°C° 0 mm 8 mps 755 mmHg 48%
17:00 +28°C° 0 mm 8 mps 754 mmHg 56%
18:00 +27°C° 0 mm 8 mps 755 mmHg 60%
19:00 +26°C° 0 mm 8 mps 755 mmHg 65%
20:00 +24°C° 0 mm 8 mps 756 mmHg 70%
21:00 +24°C° 0 mm 8 mps 756 mmHg 71%
22:00 +24°C° 0 mm 8 mps 756 mmHg 72%
23:00 +23°C° 0 mm 8 mps 756 mmHg 72%

Tomorrow, 17 April, Saturday

Time Temperature Precipitation Wind Pressure Humidity
00:00 +23°C° 0 mm 7 mps 756 mmHg 72%
01:00 +23°C° 0 mm 6 mps 756 mmHg 71%
02:00 +23°C° 0 mm 5 mps 756 mmHg 70%
03:00 +23°C° 0 mm 4 mps 756 mmHg 69%
04:00 +23°C° 0 mm 4 mps 756 mmHg 69%
05:00 +23°C° 0 mm 4 mps 756 mmHg 68%
06:00 +25°C° 0 mm 4 mps 757 mmHg 62%
07:00 +26°C° 0 mm 4 mps 757 mmHg 56%
08:00 +27°C° 0 mm 4 mps 758 mmHg 49%
09:00 +28°C° 0 mm 4 mps 758 mmHg 44%
10:00 +30°C° 0 mm 4 mps 758 mmHg 39%
11:00 +32°C° 0 mm 5 mps 758 mmHg 34%
12:00 +33°C° 0 mm 5 mps 757 mmHg 33%
13:00 +34°C° 0 mm 6 mps 756 mmHg 32%
14:00 +35°C° 0 mm 7 mps 755 mmHg 31%
15:00 +33°C° 0 mm 7 mps 755 mmHg 38%
16:00 +31°C° 0 mm 8 mps 755 mmHg 46%
17:00 +29°C° 0 mm 8 mps 755 mmHg 53%
18:00 +27°C° 0 mm 8 mps 755 mmHg 59%
19:00 +26°C° 0 mm 8 mps 755 mmHg 64%
20:00 +24°C° 0 mm 8 mps 756 mmHg 70%
21:00 +24°C° 0 mm 8 mps 756 mmHg 70%
22:00 +24°C° 0 mm 8 mps 756 mmHg 71%
23:00 +24°C° 0 mm 7 mps 756 mmHg 71%

Day after tomorrow, 18 April, Sunday

Time Temperature Precipitation Wind Pressure Humidity
00:00 +23°C° 0 mm 6 mps 756 mmHg 72%
01:00 +23°C° 0 mm 4 mps 756 mmHg 73%
02:00 +24°C° 0 mm 3 mps 756 mmHg 74%
03:00 +24°C° 0 mm 3 mps 756 mmHg 75%
04:00 +22°C° 0 mm 3 mps 756 mmHg 76%
05:00 +22°C° 0 mm 4 mps 757 mmHg 78%
06:00 +23°C° 0 mm 4 mps 757 mmHg 69%
07:00 +26°C° 0 mm 4 mps 758 mmHg 60%
08:00 +27°C° 0 mm 4 mps 758 mmHg 51%
09:00 +29°C° 0 mm 4 mps 758 mmHg 44%
10:00 +30°C° 0 mm 4 mps 758 mmHg 38%
11:00 +33°C° 0 mm 4 mps 757 mmHg 31%
12:00 +34°C° 0 mm 5 mps 757 mmHg 30%
13:00 +35°C° 0 mm 6 mps 756 mmHg 29%
14:00 +35°C° 0 mm 7 mps 755 mmHg 28%
15:00 +33°C° 0 mm 8 mps 755 mmHg 37%
16:00 +31°C° 0 mm 8 mps 755 mmHg 46%
17:00 +28°C° 0 mm 8 mps 755 mmHg 55%
18:00 +27°C° 0 mm 9 mps 755 mmHg 61%
19:00 +26°C° 0 mm 9 mps 755 mmHg 66%
20:00 +24°C° 0 mm 9 mps 756 mmHg 71%
21:00 +24°C° 0 mm 7 mps 756 mmHg 71%
22:00 +25°C° 0 mm 5 mps 757 mmHg 70%
23:00 +25°C° 0 mm 3 mps 757 mmHg 70%

19 April, Monday

Time Temperature Precipitation Wind Pressure Humidity
00:00 +25°C° 0 mm 3 mps 757 mmHg 71%
01:00 +25°C° 0 mm 3 mps 756 mmHg 71%
02:00 +24°C° 0 mm 3 mps 756 mmHg 72%
03:00 +24°C° 0 mm 3 mps 756 mmHg 71%
04:00 +24°C° 0 mm 3 mps 756 mmHg 70%
05:00 +24°C° 0 mm 3 mps 757 mmHg 69%
06:00 +25°C° 0 mm 3 mps 757 mmHg 61%
07:00 +26°C° 0 mm 3 mps 757 mmHg 54%
08:00 +28°C° 0 mm 4 mps 758 mmHg 46%
09:00 +29°C° 0 mm 4 mps 758 mmHg 40%
10:00 +32°C° 0 mm 4 mps 758 mmHg 33%
11:00 +34°C° 0 mm 4 mps 758 mmHg 27%
12:00 +35°C° 0 mm 4 mps 757 mmHg 26%
13:00 +35°C° 0 mm 5 mps 756 mmHg 25%
14:00 +36°C° 0 mm 6 mps 756 mmHg 24%
15:00 +34°C° 0 mm 7 mps 755 mmHg 33%
16:00 +32°C° 0 mm 7 mps 755 mmHg 41%
17:00 +29°C° 0 mm 8 mps 755 mmHg 50%
18:00 +28°C° 0 mm 8 mps 755 mmHg 57%
19:00 +27°C° 0 mm 8 mps 756 mmHg 64%
20:00 +24°C° 0 mm 8 mps 756 mmHg 71%
21:00 +24°C° 0 mm 7 mps 756 mmHg 72%
22:00 +25°C° 0 mm 5 mps 757 mmHg 73%
23:00 +25°C° 0 mm 4 mps 757 mmHg 73%

20 April, Tuesday

Time Temperature Precipitation Wind Pressure Humidity
00:00 +23°C° 0 mm 4 mps 757 mmHg 75%
01:00 +23°C° 0 mm 4 mps 756 mmHg 77%
02:00 +23°C° 0 mm 4 mps 756 mmHg 79%
03:00 +22°C° 0 mm 4 mps 756 mmHg 79%
04:00 +22°C° 0 mm 3 mps 757 mmHg 80%
05:00 +22°C° 0 mm 3 mps 757 mmHg 81%
06:00 +24°C° 0 mm 3 mps 757 mmHg 73%
07:00 +25°C° 0 mm 3 mps 758 mmHg 65%
08:00 +27°C° 0 mm 3 mps 758 mmHg 57%
09:00 +28°C° 0 mm 3 mps 758 mmHg 50%
10:00 +29°C° 0 mm 4 mps 758 mmHg 44%
11:00 +32°C° 0 mm 4 mps 758 mmHg 38%
12:00 +33°C° 0 mm 4 mps 757 mmHg 36%
13:00 +33°C° 0 mm 5 mps 757 mmHg 35%
14:00 +34°C° 0 mm 5 mps 756 mmHg 33%
15:00 +33°C° 0 mm 6 mps 756 mmHg 40%
16:00 +30°C° 0 mm 7 mps 756 mmHg 47%
17:00 +29°C° 0 mm 8 mps 755 mmHg 53%
18:00 +27°C° 0 mm 8 mps 756 mmHg 60%
19:00 +26°C° 0 mm 7 mps 756 mmHg 67%
20:00 +24°C° 0 mm 7 mps 757 mmHg 74%
21:00 +23°C° 0 mm 6 mps 757 mmHg 76%
22:00 +23°C° 0 mm 5 mps 757 mmHg 78%
23:00 +23°C° 0 mm 5 mps 758 mmHg 80%

21 April, Wednesday

Time Temperature Precipitation Wind Pressure Humidity
00:00 +22°C° 0 mm 4 mps 757 mmHg 81%
01:00 +22°C° 0 mm 4 mps 757 mmHg 83%
02:00 +22°C° 0 mm 3 mps 757 mmHg 85%
03:00 +22°C° 0 mm 3 mps 757 mmHg 85%
04:00 +22°C° 0 mm 4 mps 757 mmHg 86%
05:00 +21°C° 0 mm 4 mps 757 mmHg 86%
06:00 +22°C° 0 mm 4 mps 757 mmHg 80%
07:00 +23°C° 0 mm 5 mps 758 mmHg 74%
08:00 +25°C° 0 mm 5 mps 758 mmHg 67%
09:00 +27°C° 0 mm 5 mps 758 mmHg 61%
10:00 +28°C° 0 mm 5 mps 758 mmHg 54%
11:00 +29°C° 0 mm 4 mps 758 mmHg 48%
12:00 +30°C° 0 mm 5 mps 757 mmHg 45%
13:00 +32°C° 0 mm 5 mps 757 mmHg 43%
14:00 +32°C° 0 mm 6 mps 756 mmHg 40%
15:00 +30°C° 0 mm 6 mps 756 mmHg 46%
16:00 +29°C° 0 mm 6 mps 756 mmHg 51%
17:00 +28°C° 0 mm 7 mps 756 mmHg 57%
18:00 +27°C° 0 mm 6 mps 756 mmHg 63%
19:00 +24°C° 0 mm 6 mps 756 mmHg 70%
20:00 +23°C° 0 mm 6 mps 757 mmHg 77%
21:00 +23°C° 0 mm 6 mps 757 mmHg 78%
22:00 +23°C° 0 mm 7 mps 757 mmHg 79%
23:00 +23°C° 0 mm 7 mps 757 mmHg 81%
Show more